This is the latest recevied weather packets stored in our database for station/object DD6UBW. If no packets are shown the sender has not sent any weather packets the latest 10 day(s).
| Time | Temp. | Humidity | Pressure | Rain* | Wind** | Luminosity | Snow |
|---|---|---|---|---|---|---|---|
| 1787842802 | 27.78° C | 38% | 1016.6 hPa | 0 mm | - | - | - |
| 1787841001 | 27.78° C | 39% | 1016.6 hPa | 0 mm | - | - | - |
| 1787839200 | 28.33° C | 37% | 1016.6 hPa | 0 mm | - | - | - |
| 1787837401 | 27.78° C | 37% | 1016.6 hPa | 0 mm | - | - | - |
| 1787835601 | 27.78° C | 38% | 1016.6 hPa | 0 mm | - | - | - |
| 1787833801 | 27.22° C | 40% | 1017.6 hPa | 0 mm | - | - | - |
| 1787832002 | 27.22° C | 38% | 1017.6 hPa | 0 mm | - | - | - |
| 1787830208 | 26.67° C | 41% | 1017.6 hPa | 0 mm | - | - | - |
| 1787828401 | 26.67° C | 42% | 1018.6 hPa | 0 mm | - | - | - |
| 1787826601 | 25.56° C | 43% | 1018.6 hPa | 0 mm | - | - | - |
| 1787824800 | 25° C | 47% | 1018.6 hPa | 0 mm | - | - | - |
| 1787823001 | 23.89° C | 53% | 1018.6 hPa | 0 mm | - | - | - |
| 1787821201 | 22.78° C | 56% | 1019.6 hPa | 0 mm | - | - | - |
| 1787819403 | 21.11° C | 59% | 1019.6 hPa | 0 mm | - | - | - |
| 1787817601 | 20.56° C | 62% | 1019.6 hPa | 0 mm | - | - | - |
| 1787815803 | 18.89° C | 65% | 1019.6 hPa | 0 mm | - | - | - |
| 1787814001 | 18.33° C | 68% | 1019.6 hPa | 0 mm | - | - | - |
| 1787812201 | 17.22° C | 70% | 1019.6 hPa | 0 mm | - | - | - |
| 1787810400 | 16.11° C | 74% | 1019.6 hPa | 0 mm | - | - | - |
| 1787808601 | 14.44° C | 78% | 1019.6 hPa | 0 mm | - | - | - |
| 1787806801 | 13.89° C | 79% | 1019.6 hPa | 0 mm | - | - | - |
| 1787805001 | 13.89° C | 79% | 1019.6 hPa | 0 mm | - | - | - |
| 1787803201 | 13.89° C | 79% | 1019.6 hPa | 0 mm | - | - | - |
| 1787801401 | 13.89° C | 77% | 1019.6 hPa | 0 mm | - | - | - |
| 1787799600 | 14.44° C | 76% | 1019.6 hPa | 0 mm | - | - | - |
* Rain since midnight (hover to see other rain measurements)
** Current wind speed in m/s (hover to see current wind gust speed)